TimeCST,TemperatureF,Dew PointF,Humidity,Sea Level PressureIn,VisibilityMPH,Wind Direction,Wind SpeedMPH,Gust SpeedMPH,PrecipitationIn,Events,Conditions,WindDirDegrees,DateUTC
12:15 AM,64.8,59.9,84,30.12,10.0,East,4.6,-,N/A,,Scattered Clouds,90,2013-11-05 06:15:00
12:35 AM,64.4,59.9,85,30.12,10.0,East,5.8,-,N/A,,Scattered Clouds,90,2013-11-05 06:35:00
12:55 AM,64.4,59.9,85,30.13,10.0,East,4.6,-,N/A,,Scattered Clouds,90,2013-11-05 06:55:00
1:15 AM,64.2,59.9,86,30.13,10.0,Calm,Calm,-,N/A,,Overcast,0,2013-11-05 07:15:00
1:35 AM,63.9,60.1,87,30.12,10.0,East,5.8,-,N/A,,Overcast,80,2013-11-05 07:35:00
1:55 AM,63.7,60.3,89,30.11,10.0,East,6.9,-,N/A,,Mostly Cloudy,90,2013-11-05 07:55:00
2:15 AM,63.5,60.4,90,30.11,10.0,East,6.9,-,N/A,,Scattered Clouds,90,2013-11-05 08:15:00
2:35 AM,63.7,60.8,90,30.10,10.0,East,6.9,-,N/A,,Mostly Cloudy,100,2013-11-05 08:35:00
2:55 AM,63.7,60.8,90,30.09,10.0,East,5.8,-,N/A,,Overcast,80,2013-11-05 08:55:00
3:15 AM,63.9,61.0,90,30.10,10.0,East,5.8,-,N/A,,Overcast,100,2013-11-05 09:15:00
3:35 AM,63.9,61.2,91,30.09,10.0,East,4.6,-,N/A,,Overcast,100,2013-11-05 09:35:00
3:55 AM,63.9,61.2,91,30.09,10.0,East,6.9,-,N/A,,Overcast,100,2013-11-05 09:55:00
4:15 AM,64.0,61.7,92,30.09,10.0,East,6.9,-,N/A,,Overcast,100,2013-11-05 10:15:00
4:35 AM,63.9,61.5,92,30.10,10.0,East,6.9,-,N/A,,Overcast,100,2013-11-05 10:35:00
4:55 AM,64.0,61.7,92,30.10,10.0,East,5.8,-,N/A,,Overcast,90,2013-11-05 10:55:00
5:15 AM,64.0,61.7,92,30.10,10.0,East,6.9,-,N/A,,Overcast,90,2013-11-05 11:15:00
5:35 AM,64.0,61.7,92,30.10,10.0,East,5.8,-,N/A,,Overcast,90,2013-11-05 11:35:00
5:55 AM,64.0,61.7,92,30.10,10.0,East,6.9,-,N/A,,Overcast,100,2013-11-05 11:55:00
6:15 AM,64.0,61.7,92,30.10,7.0,East,3.5,-,N/A,,Overcast,100,2013-11-05 12:15:00
6:35 AM,64.2,61.9,92,30.11,7.0,East,6.9,-,N/A,,Overcast,100,2013-11-05 12:35:00
6:55 AM,64.4,62.1,92,30.11,7.0,East,9.2,-,N/A,,Overcast,100,2013-11-05 12:55:00
7:15 AM,64.6,62.2,92,30.11,7.0,East,6.9,-,N/A,,Overcast,100,2013-11-05 13:15:00
7:35 AM,65.1,62.6,92,30.11,10.0,East,8.1,-,N/A,,Overcast,100,2013-11-05 13:35:00
7:55 AM,65.5,62.6,90,30.12,10.0,East,9.2,-,N/A,,Mostly Cloudy,100,2013-11-05 13:55:00
8:15 AM,65.8,62.8,90,30.13,10.0,East,8.1,-,N/A,,Mostly Cloudy,100,2013-11-05 14:15:00
8:35 AM,66.2,63.1,90,30.13,10.0,East,8.1,-,N/A,,Overcast,100,2013-11-05 14:35:00
8:55 AM,66.9,63.5,89,30.13,10.0,ESE,6.9,-,N/A,,Overcast,110,2013-11-05 14:55:00
9:15 AM,67.6,63.7,87,30.13,10.0,ESE,6.9,-,N/A,,Overcast,110,2013-11-05 15:15:00
9:35 AM,68.9,64.4,86,30.13,10.0,East,8.1,-,N/A,,Overcast,100,2013-11-05 15:35:00
9:55 AM,70.5,64.8,82,30.13,10.0,ESE,6.9,-,N/A,,Overcast,120,2013-11-05 15:55:00
10:15 AM,71.2,64.9,80,30.13,10.0,ESE,5.8,-,N/A,,Overcast,120,2013-11-05 16:15:00
10:35 AM,73.0,65.5,77,30.12,10.0,ESE,8.1,-,N/A,,Overcast,120,2013-11-05 16:35:00
10:55 AM,74.5,65.7,74,30.12,10.0,ESE,5.8,-,N/A,,Scattered Clouds,120,2013-11-05 16:55:00
11:15 AM,75.2,66.2,73,30.11,10.0,SE,6.9,-,N/A,,Mostly Cloudy,130,2013-11-05 17:15:00
11:35 AM,76.8,66.6,70,30.10,10.0,SE,5.8,-,N/A,,Overcast,140,2013-11-05 17:35:00
11:55 AM,78.4,67.1,68,30.09,10.0,ESE,10.4,-,N/A,,Overcast,120,2013-11-05 17:55:00
12:15 PM,77.9,66.0,67,30.09,10.0,SSE,8.1,17.3,N/A,,Overcast,150,2013-11-05 18:15:00
12:35 PM,77.9,66.2,67,30.09,10.0,SSE,8.1,18.4,N/A,,Mostly Cloudy,160,2013-11-05 18:35:00
12:55 PM,78.4,66.6,67,30.08,10.0,SSE,9.2,-,N/A,,Overcast,150,2013-11-05 18:55:00
1:15 PM,79.0,66.7,66,30.07,10.0,ESE,6.9,-,N/A,,Overcast,120,2013-11-05 19:15:00
1:35 PM,77.7,66.9,69,30.06,10.0,SE,5.8,-,N/A,,Overcast,140,2013-11-05 19:35:00
1:55 PM,77.4,67.3,71,30.06,10.0,SE,5.8,-,N/A,,Overcast,130,2013-11-05 19:55:00
2:15 PM,77.2,67.6,72,30.05,10.0,SE,3.5,-,N/A,,Overcast,130,2013-11-05 20:15:00
2:35 PM,77.0,68.2,74,30.05,10.0,SE,6.9,-,N/A,,Overcast,130,2013-11-05 20:35:00
2:55 PM,77.0,68.4,75,30.04,10.0,SE,3.5,-,N/A,,Overcast,140,2013-11-05 20:55:00
3:15 PM,77.0,68.7,75,30.04,10.0,SE,3.5,-,N/A,,Overcast,140,2013-11-05 21:15:00
3:35 PM,76.8,68.4,75,30.04,10.0,South,4.6,-,N/A,,Overcast,170,2013-11-05 21:35:00
3:55 PM,75.0,68.7,81,30.04,10.0,South,3.5,-,N/A,,Overcast,190,2013-11-05 21:55:00
4:15 PM,74.8,69.1,82,30.04,10.0,Calm,Calm,-,N/A,,Overcast,0,2013-11-05 22:15:00
4:35 PM,75.6,69.1,80,30.04,10.0,Calm,Calm,-,N/A,,Overcast,0,2013-11-05 22:35:00
4:55 PM,75.6,69.1,80,30.04,10.0,SE,4.6,-,N/A,,Overcast,130,2013-11-05 22:55:00
5:15 PM,75.2,68.9,81,30.04,10.0,ESE,3.5,-,N/A,,Overcast,120,2013-11-05 23:15:00
5:35 PM,74.7,68.9,82,30.04,10.0,ESE,5.8,-,N/A,,Overcast,120,2013-11-05 23:35:00
5:55 PM,74.5,68.9,83,30.05,10.0,ESE,5.8,-,N/A,,Mostly Cloudy,120,2013-11-05 23:55:00
6:15 PM,73.8,68.7,84,30.05,10.0,SE,6.9,-,N/A,,Mostly Cloudy,130,2013-11-06 00:15:00
6:35 PM,73.2,68.5,85,30.06,10.0,ESE,6.9,-,N/A,,Overcast,120,2013-11-06 00:35:00
6:55 PM,73.0,68.4,85,30.06,10.0,ESE,6.9,-,N/A,,Mostly Cloudy,120,2013-11-06 00:55:00
7:15 PM,72.7,68.2,86,30.06,10.0,SE,6.9,-,N/A,,Scattered Clouds,130,2013-11-06 01:15:00
7:35 PM,72.3,68.2,87,30.07,10.0,ESE,5.8,-,N/A,,Scattered Clouds,120,2013-11-06 01:35:00
7:55 PM,72.0,68.0,87,30.07,10.0,SE,5.8,-,N/A,,Scattered Clouds,130,2013-11-06 01:55:00
8:15 PM,71.4,68.0,89,30.08,10.0,SE,3.5,-,N/A,,Scattered Clouds,130,2013-11-06 02:15:00
8:35 PM,70.9,67.6,89,30.08,10.0,SE,5.8,-,N/A,,Clear,130,2013-11-06 02:35:00
8:55 PM,70.9,67.5,89,30.09,10.0,ESE,8.1,-,N/A,,Mostly Cloudy,120,2013-11-06 02:55:00
9:15 PM,71.4,67.3,87,30.09,10.0,SE,5.8,-,N/A,,Overcast,130,2013-11-06 03:15:00
9:35 PM,71.6,67.3,86,30.09,10.0,SE,5.8,-,N/A,,Overcast,130,2013-11-06 03:35:00
9:55 PM,71.6,67.1,86,30.09,10.0,ESE,8.1,-,N/A,,Overcast,120,2013-11-06 03:55:00
10:15 PM,71.6,66.9,85,30.09,10.0,SE,8.1,-,N/A,,Overcast,130,2013-11-06 04:15:00
10:35 PM,71.2,66.7,86,30.09,10.0,SE,6.9,-,N/A,,Mostly Cloudy,130,2013-11-06 04:35:00
10:55 PM,70.9,66.7,87,30.10,7.0,SE,6.9,-,N/A,,Overcast,140,2013-11-06 04:55:00
11:15 PM,69.8,66.9,91,30.10,4.0,SE,4.6,-,N/A,Rain,Rain,130,2013-11-06 05:15:00
11:35 PM,68.7,66.7,93,30.10,7.0,ESE,5.8,-,N/A,,Overcast,120,2013-11-06 05:35:00
11:55 PM,68.7,66.7,93,30.09,10.0,ESE,4.6,-,N/A,,Overcast,120,2013-11-06 05:55:00